[[{"header":{"parameterUnit":"m.s-1","parameterCategory":2,"la1":30.2991,"la2":30.254,"lo1":-89.0895,"lo2":-89.0444,"dy":0.0017,"dx":0.0017,"nx":28,"ny":28,"refTime":"2023-04-30T15:00:00:Z","depth":"0","parameterNumber":2,"parameterNumberName":"U-component_of_CURRENTS"},"data":[0,0,0,0,0,0,0,0,0,0,0,0,0,0,0,0,0,0,0,0,0,0,0,0,0,0,0,0,0,0,0,0,0,0,0,0,0,0,0,0,0,0,0,0,0,0,0,0,0,0,0,0,0,0,0,0,0,0,0.229,0.2292,0,0.2446,0.2448,0.245,0.2567,0.2567,0.2568,0.2568,0.2683,0.2686,0.2688,0,0,0,0,0,0,0,0,0,0,0,0,0,0.2186,0.2187,0.229,0.2292,0.2293,0.2446,0.2448,0.2451,0.2566,0.2567,0.2568,0.2569,0.2682,0.2685,0.2688,0,0,0,0,0,0,0,0,0,0,0,0,0,0.2279,0.2187,0.229,0.2366,0.2374,0.2445,0.2448,0.2451,0.2566,0.2567,0.2568,0.2569,0.2681,0.2685,0.2689,0.2692,0,0,0.27,0.2701,0,0,0,0,0,0,0,0,0.2273,0.2283,0.2353,0.2361,0.237,0.2484,0.2453,0.2528,0.2566,0.2498,0.2568,0.257,0.2609,0.2619,0.2653,0.2697,0.2702,0.27,0.2702,0.2704,0.2705,0,0,0,0,0,0,0,0.2267,0.2277,0.2356,0.2355,0.2365,0.2424,0.2438,0.2469,0.2549,0.2504,0.2512,0.2522,0.2614,0.2649,0.2656,0.2704,0.27,0.2703,0.2706,0.2707,0.2869,0.287,0,0,0,0,0,0,0.2233,0.2271,0.2351,0.236,0.2318,0.2425,0.244,0.245,0.255,0.2565,0.2521,0.2527,0.2642,0.2652,0.266,0.2758,0.2704,0.2707,0.271,0.2866,0.2869,0.2871,0,0,0,0,0,0,0.223,0.2239,0.2345,0.2316,0.2333,0.2424,0.2435,0.2452,0.2498,0.2562,0.2578,0.2548,0.2643,0.2655,0.2713,0.2759,0.2709,0.2712,0.2864,0.2867,0.287,0.2895,0,0,0,0,0,0,0.2226,0.2237,0.2243,0.2313,0.2333,0.2401,0.2434,0.2455,0.25,0.251,0.259,0.2602,0.2645,0.2707,0.2716,0.2763,0.2715,0.2861,0.2865,0.2869,0.2892,0.2899,0.2905,0,0,0,0,0,0.2222,0.2236,0.2243,0.2253,0.2336,0.2401,0.2419,0.2489,0.25,0.2531,0.2586,0.26,0.2739,0.2711,0.2722,0.2771,0.2859,0.2864,0.2869,0.2889,0.2897,0.2905,0,0,0,0,0,0,0.2207,0.225,0.226,0.2288,0.234,0.242,0.2455,0.2485,0.2553,0.2556,0.2614,0.2631,0.2697,0.2727,0.2694,0.2832,0.2806,0.2813,0.2818,0.2826,0.2833,0.2789,0.2718,0,0,0,0,0,0.2196,0.2222,0.2265,0.2297,0.2311,0.2375,0.241,0.2448,0.2509,0.2541,0.2592,0.2655,0.2724,0.2766,0.2814,0.2881,0.2903,0.2925,0.2931,0.2936,0.291,0.2989,0.2999,0.2887,0.2887,0.2886,0,0,0.2204,0.223,0.2247,0.2295,0.2338,0.2371,0.2402,0.245,0.2495,0.2537,0.2611,0.2661,0.274,0.2826,0.2861,0.286,0.2988,0.2942,0.2946,0.2916,0.2995,0.3006,0.3015,0.289,0.2889,0.2889,0,0,0.2215,0.2243,0.2252,0.2293,0.2338,0.2378,0.2384,0.2447,0.2496,0.256,0.2612,0.268,0.2779,0.2854,0.2905,0.2969,0.3005,0.3004,0.302,0.3099,0.3108,0.3116,0.3186,0.32,0.3027,0.3027,0.3027,0,0.2221,0.2235,0.2271,0.229,0.2328,0.2373,0.2395,0.2454,0.2534,0.2574,0.2585,0.2743,0.2794,0.292,0.2952,0.2982,0.303,0.2985,0.3106,0.3114,0.3122,0.3191,0.3206,0.3028,0.3028,0.3028,0.3028,0,0.2224,0.2249,0.2265,0.23,0.2344,0.2381,0.2442,0.2492,0.2538,0.2593,0.27,0.2781,0.2882,0.2925,0.2959,0.3063,0.3081,0.3088,0.3078,0.3134,0.3204,0.3219,0.3031,0.303,0.303,0.3029,0,0,0.2212,0.2253,0.2263,0.2269,0.2352,0.2377,0.2462,0.2541,0.2584,0.2675,0.2753,0.2878,0.2911,0.2968,0.3035,0.3099,0.3203,0.3119,0.3122,0.3172,0.3384,0.3449,0.3472,0.3244,0.3246,0.3248,0.342,0,0.2206,0.2216,0.226,0.2298,0.2306,0.2393,0.2462,0.2544,0.2625,0.2708,0.2817,0.2905,0.2941,0.2993,0.3071,0.3164,0.324,0.3155,0.3333,0.3337,0.3376,0.3491,0.3527,0.3687,0.3435,0.3437,0.3439,0,0.218,0.2199,0.2216,0.2271,0.2283,0.2321,0.2427,0.2498,0.264,0.2708,0.2829,0.2907,0.3048,0.3043,0.325,0.3203,0.3285,0.3345,0.3355,0.3404,0.343,0.3587,0.3724,0.3646,0.3462,0.346,0.3459,0,0.2117,0.2162,0.2169,0.2197,0.2274,0.2309,0.2361,0.249,0.2565,0.271,0.2782,0.2944,0.3049,0.3173,0.3334,0.3301,0.3536,0.3515,0.365,0.3656,0.3711,0.3718,0.3773,0.3633,0.3632,0.3632,0.3631,0,0.2089,0.2087,0.2129,0.2143,0.2169,0.2238,0.2301,0.2388,0.2522,0.2617,0.277,0.2892,0.3082,0.3255,0.336,0.3585,0.3584,0.3667,0.3716,0.3726,0.3731,0.3682,0.3572,0.3638,0.3637,0.3636,0.3634,0,0.2014,0.2044,0.2057,0.2124,0.2139,0.2161,0.2267,0.2313,0.2451,0.2588,0.2644,0.2888,0.3137,0.3332,0.3555,0.3647,0.3792,0.3884,0.3883,0.3928,0.3957,0.3848,0.3901,0.3872,0.4061,0.4063,0.4066,0,0.1965,0.1961,0.2032,0.2042,0.207,0.2113,0.2148,0.2277,0.2346,0.2597,0.2661,0.2943,0.3171,0.3556,0.3792,0.4044,0.3918,0.4157,0.4087,0.3984,0.3898,0.379,0.375,0.4183,0.4186,0.4189,0.4191,0,0.1887,0.192,0.1945,0.198,0.2006,0.205,0.2109,0.2158,0.233,0.2476,0.2701,0.2902,0.335,0.3671,0.4016,0.4168,0.4059,0.4216,0.4123,0.4008,0.3881,0.3869,0.4023,0.4214,0.4211,0.421,0.4208,0.4207,0.1826,0.1841,0.1881,0.1912,0.1938,0.1978,0.2005,0.2099,0.2234,0.2441,0.2655,0.294,0.3419,0.3959,0.4142,0.4389,0.4258,0.4345,0.4229,0.4138,0.4073,0.427,0.45,0.45,0.4499,0.4499,0.4498,0,0.1762,0.1781,0.1799,0.1853,0.1856,0.1902,0.1969,0.2005,0.2142,0.2362,0.2585,0.3039,0.3496,0.3894,0.4323,0.4363,0.434,0.4303,0.413,0.4098,0.4322,0.4289,0.4468,0.4468,0.4468,0.4468,0.4468,0.4468,0.1724,0.1728,0.1759,0.176,0.1782,0.1794,0.1824,0.1906,0.2037,0.228,0.2508,0.2748,0.3245,0.3847,0.4154,0.4197,0.4038,0.4034,0.3929,0.4035,0.4028,0.4021,0.3968,0.4077,0.4076,0.3749,0.3746,0.3743]},{"header":{"parameterUnit":"m.s-1","parameterCategory":2,"la1":30.2991,"la2":30.254,"lo1":-89.0895,"lo2":-89.0444,"dy":0.0017,"dx":0.0017,"nx":28,"ny":28,"refTime":"2023-04-30T15:00:00:Z","depth":"0","parameterNumber":3,"parameterNumberName":"V-component_of_CURRENTS"},"data":[0,0,0,0,0,0,0,0,0,0,0,0,0,0,0,0,0,0,0,0,0,0,0,0,0,0,0,0,0,0,0,0,0,0,0,0,0,0,0,0,0,0,0,0,0,0,0,0,0,0,0,0,0,0,0,0,0,0,-0.0539,-0.0541,0,-0.0796,-0.0799,-0.0802,-0.1019,-0.1021,-0.1023,-0.1025,-0.1255,-0.1259,-0.1263,0,0,0,0,0,0,0,0,0,0,0,0,0,-0.0308,-0.0311,-0.0538,-0.0541,-0.0544,-0.0796,-0.0799,-0.0803,-0.1018,-0.1021,-0.1023,-0.1026,-0.1254,-0.1259,-0.1264,0,0,0,0,0,0,0,0,0,0,0,0,0,-0.0473,-0.0312,-0.0538,-0.068,-0.0695,-0.0795,-0.08,-0.0804,-0.1018,-0.1021,-0.1024,-0.1027,-0.1252,-0.1258,-0.1264,-0.124,0,0,-0.1283,-0.1286,0,0,0,0,0,0,0,0,-0.0463,-0.0481,-0.0656,-0.067,-0.0688,-0.0876,-0.0803,-0.0948,-0.1017,-0.0898,-0.1025,-0.1028,-0.1122,-0.1139,-0.1184,-0.125,-0.126,-0.1284,-0.1288,-0.129,-0.1292,0,0,0,0,0,0,0,-0.0451,-0.0472,-0.0643,-0.0659,-0.0678,-0.0757,-0.0783,-0.0832,-0.099,-0.0909,-0.0924,-0.0948,-0.1131,-0.1178,-0.1191,-0.1264,-0.1284,-0.1289,-0.1293,-0.1296,-0.1347,-0.1344,0,0,0,0,0,0,-0.0407,-0.0461,-0.0635,-0.0651,-0.0578,-0.0758,-0.0788,-0.0815,-0.0991,-0.1021,-0.0945,-0.0957,-0.1166,-0.1184,-0.12,-0.1189,-0.129,-0.1296,-0.13,-0.1349,-0.1346,-0.1344,0,0,0,0,0,0,-0.0401,-0.042,-0.0624,-0.0559,-0.0591,-0.0757,-0.0787,-0.0818,-0.0866,-0.1018,-0.1049,-0.0961,-0.1169,-0.1191,-0.1244,-0.1199,-0.1299,-0.1305,-0.1352,-0.1348,-0.1345,-0.116,0,0,0,0,0,0,-0.0394,-0.0417,-0.0411,-0.0556,-0.0593,-0.0659,-0.0784,-0.0821,-0.0875,-0.0893,-0.1041,-0.1067,-0.1173,-0.1233,-0.125,-0.1209,-0.131,-0.1355,-0.135,-0.1346,-0.1169,-0.1151,-0.1135,0,0,0,0,0,-0.0385,-0.0364,-0.0409,-0.043,-0.0583,-0.0656,-0.0681,-0.0813,-0.0871,-0.0872,-0.0983,-0.1062,-0.1217,-0.1236,-0.1256,-0.1217,-0.1357,-0.1352,-0.1346,-0.1177,-0.1155,-0.1135,0,0,0,0,0,0,-0.0268,-0.0388,-0.044,-0.046,-0.0537,-0.0692,-0.0702,-0.0784,-0.0873,-0.0888,-0.1037,-0.1069,-0.1101,-0.117,-0.1189,-0.1216,-0.1296,-0.1294,-0.116,-0.114,-0.1123,-0.1071,-0.1315,0,0,0,0,0,-0.0231,-0.0246,-0.0369,-0.0379,-0.0407,-0.0543,-0.0586,-0.0668,-0.0771,-0.0816,-0.0918,-0.1015,-0.109,-0.1125,-0.12,-0.1203,-0.1244,-0.1187,-0.117,-0.1155,-0.1124,-0.1159,-0.1142,-0.1326,-0.1326,-0.1326,0,0,-0.0191,-0.0254,-0.0267,-0.0353,-0.0426,-0.0452,-0.0577,-0.062,-0.0645,-0.0818,-0.0862,-0.0957,-0.1078,-0.1106,-0.1123,-0.116,-0.1117,-0.1148,-0.1135,-0.1112,-0.1151,-0.1134,-0.1118,-0.1322,-0.1323,-0.1324,0,0,-0.0122,-0.0165,-0.0162,-0.0206,-0.0288,-0.0362,-0.0358,-0.0484,-0.0539,-0.0582,-0.072,-0.0778,-0.0884,-0.0969,-0.1024,-0.0941,-0.1029,-0.0962,-0.0831,-0.0864,-0.0849,-0.0837,-0.0833,-0.0822,-0.0949,-0.0948,-0.0948,0,-0.0077,-0.0095,-0.0167,-0.0172,-0.0199,-0.0305,-0.0305,-0.0358,-0.0485,-0.0511,-0.0564,-0.0717,-0.0816,-0.0864,-0.0847,-0.0901,-0.0925,-0.0904,-0.0841,-0.083,-0.082,-0.082,-0.081,-0.0939,-0.094,-0.0941,-0.0942,0,-0.0016,-0.0028,-0.0016,-0.0061,-0.0082,-0.009,-0.0168,-0.0184,-0.0247,-0.0321,-0.0367,-0.0497,-0.0592,-0.0622,-0.0715,-0.0695,-0.0733,-0.0819,-0.089,-0.079,-0.0797,-0.0789,-0.0925,-0.0929,-0.0931,-0.0934,0,0,0.0046,0.0023,0.0024,0.002,-0.0025,-0.0043,-0.003,-0.0073,-0.0072,-0.0149,-0.0157,-0.0267,-0.0336,-0.0399,-0.0513,-0.0531,-0.0483,-0.0624,-0.0631,-0.0611,-0.052,-0.054,-0.0536,-0.0563,-0.0561,-0.056,-0.054,0,0.0097,0.0117,0.0096,0.0125,0.0124,0.0077,0.0093,0.0058,0.0016,-0.0003,-0.0096,-0.015,-0.0252,-0.0295,-0.032,-0.0467,-0.0459,-0.0477,-0.0627,-0.063,-0.0655,-0.0527,-0.0471,-0.0449,-0.0534,-0.0533,-0.0532,0,0.0144,0.0148,0.0182,0.0195,0.0195,0.0213,0.0224,0.0222,0.0193,0.0163,0.0125,0.0034,-0.0011,-0.0111,-0.0227,-0.0236,-0.0335,-0.0427,-0.0431,-0.0508,-0.0637,-0.0571,-0.0434,-0.0581,-0.0523,-0.0524,-0.0524,0,0.0191,0.0209,0.0241,0.0243,0.0247,0.0271,0.0281,0.0269,0.0278,0.0268,0.0279,0.02,0.0156,0.004,-0.014,-0.0184,-0.0256,-0.0362,-0.0454,-0.0457,-0.0465,-0.0471,-0.0481,-0.0399,-0.0399,-0.0399,-0.0399,0,0.0236,0.0263,0.0268,0.0281,0.0338,0.0328,0.0386,0.0386,0.0401,0.0437,0.0365,0.0379,0.0192,0.0111,-0.0055,-0.0207,-0.0191,-0.038,-0.0441,-0.0396,-0.0396,-0.0576,-0.0636,-0.0399,-0.0399,-0.0399,-0.0399,0,0.0281,0.0278,0.0314,0.0338,0.0353,0.0395,0.0449,0.0486,0.0504,0.0558,0.0564,0.0518,0.0431,0.0254,0.0063,-0.0099,-0.0337,-0.0319,-0.0228,-0.0278,-0.0518,-0.0568,-0.0713,-0.0793,-0.0399,-0.0399,-0.04,0,0.031,0.0325,0.0358,0.0382,0.0398,0.0456,0.0494,0.0526,0.0574,0.064,0.0675,0.0634,0.0622,0.0374,0.0106,-0.0124,-0.0313,-0.026,-0.0342,-0.0468,-0.0571,-0.072,-0.0788,-0.0266,-0.0265,-0.0264,-0.0263,0,0.036,0.0365,0.0394,0.0441,0.0483,0.0545,0.0611,0.0664,0.072,0.0791,0.0871,0.0881,0.0686,0.0507,0.0197,-0.0003,-0.0356,-0.0254,-0.0413,-0.0456,-0.0589,-0.0716,-0.0328,-0.0257,-0.0257,-0.0258,-0.0258,-0.0258,0.0398,0.043,0.0457,0.0511,0.0563,0.0641,0.0714,0.0796,0.0907,0.1053,0.1033,0.1116,0.0866,0.0468,0.0159,-0.0294,-0.0337,-0.0424,-0.0466,-0.0604,-0.0697,-0.0269,-0.027,-0.0271,-0.0272,-0.0272,-0.0273,0,0.0436,0.0468,0.0523,0.0593,0.067,0.0684,0.0798,0.0891,0.1046,0.1188,0.1289,0.1265,0.0947,0.0532,-0.0024,-0.0408,-0.0654,-0.0603,-0.0775,-0.0831,-0.0453,-0.0463,-0.0473,-0.0473,-0.0472,-0.0472,-0.0472,-0.0472,0.0451,0.0508,0.0542,0.0675,0.0734,0.0855,0.0928,0.1074,0.1201,0.1422,0.153,0.1581,0.139,0.0401,-0.0331,-0.0558,-0.0927,-0.0988,-0.1161,-0.0859,-0.0847,-0.0835,-0.0863,-0.0956,-0.0956,-0.1555,-0.1559,-0.1563]}],[{"header":{"parameterUnit":"m.s-1","parameterCategory":2,"la1":30.2991,"la2":30.254,"lo1":-89.0895,"lo2":-89.0444,"dy":0.0017,"dx":0.0017,"nx":28,"ny":28,"refTime":"2023-04-30T15:00:00:Z","depth":"2","parameterNumber":2,"parameterNumberName":"U-component_of_CURRENTS"},"data":[0,0,0,0,0,0,0,0,0,0,0,0,0,0,0,0,0,0,0,0,0,0,0,0,0,0,0,0,0,0,0,0,0,0,0,0,0,0,0,0,0,0,0,0,0,0,0,0,0,0,0,0,0,0,0,0,0,0,0.0875,0.0874,0,0.0973,0.0977,0.0981,0.0928,0.0922,0.0916,0.0911,0.0834,0.0838,0.0841,0,0,0,0,0,0,0,0,0,0,0,0,0,0.0642,0.065,0.0875,0.0873,0.0872,0.0973,0.0977,0.0982,0.0929,0.0922,0.0915,0.0908,0.0833,0.0837,0.0841,0,0,0,0,0,0,0,0,0,0,0,0,0,0.0773,0.0652,0.0876,0.0834,0.0829,0.0972,0.0977,0.0983,0.093,0.0922,0.0913,0.0905,0.0832,0.0837,0.0842,0.104,0,0,0.0856,0.0858,0,0,0,0,0,0,0,0,0.0766,0.0786,0.0842,0.0836,0.0831,0.0901,0.0865,0.0982,0.0932,0.0926,0.0911,0.0901,0.0826,0.0831,0.0916,0.1036,0.1033,0.0857,0.086,0.0862,0.0863,0,0,0,0,0,0,0,0.0757,0.0781,0.0947,0.084,0.0833,0.0807,0.0821,0.0891,0.0944,0.0926,0.0914,0.0876,0.0825,0.0913,0.0913,0.1032,0.0856,0.0861,0.0864,0.0866,0.13,0.1309,0,0,0,0,0,0,0.0692,0.0775,0.0943,0.0946,0.074,0.0816,0.0832,0.0914,0.0946,0.0935,0.0883,0.0873,0.0908,0.0908,0.0909,0.1005,0.0862,0.0866,0.0869,0.1292,0.1302,0.1312,0,0,0,0,0,0,0.0689,0.0712,0.0938,0.0828,0.085,0.0826,0.092,0.0919,0.1048,0.091,0.09,0.1009,0.0902,0.0902,0.0965,0.1004,0.0868,0.0873,0.1281,0.1295,0.1307,0.1283,0,0,0,0,0,0,0.0685,0.0714,0.0778,0.0829,0.0853,0.1026,0.0924,0.0926,0.1017,0.1008,0.1016,0.0997,0.0895,0.0959,0.097,0.1008,0.0876,0.127,0.1287,0.1303,0.1273,0.1294,0.1312,0,0,0,0,0,0.0678,0.0738,0.0785,0.0802,0.094,0.1027,0.1046,0.1014,0.1032,0.1108,0.109,0.0999,0.1071,0.0969,0.098,0.102,0.1263,0.1283,0.1302,0.1265,0.129,0.1311,0,0,0,0,0,0,0.0622,0.0739,0.0789,0.0876,0.0959,0.1004,0.1042,0.1101,0.1182,0.115,0.1095,0.1078,0.1155,0.1164,0.1054,0.1222,0.1165,0.1187,0.1134,0.1157,0.1176,0.1195,0.088,0,0,0,0,0,0.0663,0.0733,0.0863,0.0903,0.0993,0.1084,0.1129,0.1128,0.1169,0.1205,0.122,0.1242,0.1265,0.1258,0.1296,0.1397,0.1385,0.1456,0.1475,0.1489,0.1533,0.154,0.1558,0.1376,0.1375,0.1375,0,0,0.0607,0.0685,0.0709,0.0894,0.0977,0.1089,0.1101,0.1172,0.1201,0.1181,0.1273,0.1325,0.1326,0.1379,0.1421,0.1364,0.1544,0.1514,0.1523,0.1561,0.1562,0.1577,0.1591,0.1389,0.1386,0.1384,0,0,0.0578,0.0688,0.0809,0.0875,0.0998,0.1078,0.1141,0.1293,0.1318,0.1427,0.1406,0.1487,0.1578,0.1542,0.1538,0.1738,0.1665,0.1805,0.1864,0.1869,0.1879,0.1888,0.1872,0.188,0.1782,0.1782,0.1782,0,0.0552,0.0701,0.0834,0.0947,0.0959,0.1108,0.1215,0.1282,0.1398,0.1422,0.1428,0.164,0.1628,0.1673,0.1731,0.1758,0.1773,0.1722,0.1874,0.1884,0.1893,0.1875,0.1884,0.1783,0.1783,0.1783,0.1783,0,0.0626,0.0725,0.0777,0.0991,0.1058,0.1123,0.1231,0.1311,0.1402,0.1472,0.1611,0.1672,0.1771,0.1819,0.1818,0.1934,0.1927,0.1891,0.1761,0.1906,0.1883,0.1892,0.1785,0.1784,0.1784,0.1784,0,0,0.0732,0.0831,0.0872,0.0923,0.1062,0.1139,0.1168,0.1303,0.1345,0.1501,0.1579,0.172,0.1843,0.187,0.193,0.1982,0.2042,0.2001,0.2,0.1892,0.2068,0.188,0.187,0.2026,0.2028,0.2031,0.2008,0,0.0821,0.093,0.0988,0.1085,0.1179,0.1195,0.1215,0.1276,0.1372,0.1478,0.1581,0.1724,0.1826,0.1912,0.1981,0.2037,0.2078,0.2053,0.2032,0.2031,0.1765,0.1878,0.1728,0.1682,0.2016,0.2018,0.2019,0,0.0988,0.1023,0.1095,0.1104,0.1171,0.1234,0.1282,0.1316,0.1399,0.146,0.1614,0.1731,0.1877,0.1941,0.2079,0.2071,0.2112,0.2151,0.2146,0.1993,0.1861,0.1613,0.1685,0.2033,0.2032,0.2031,0.203,0,0.1015,0.1132,0.1156,0.1143,0.1197,0.1219,0.1288,0.1342,0.1367,0.1508,0.1574,0.1745,0.1841,0.1948,0.2049,0.2078,0.2162,0.2143,0.2012,0.1996,0.1878,0.1847,0.2245,0.2245,0.2245,0.2245,0.2245,0,0.1032,0.1115,0.1175,0.1169,0.1246,0.1265,0.1347,0.1391,0.145,0.1517,0.1641,0.1693,0.1869,0.1923,0.2021,0.2025,0.2103,0.2059,0.199,0.1871,0.184,0.2167,0.2158,0.2244,0.2245,0.2245,0.2245,0,0.1023,0.1049,0.1146,0.1213,0.1251,0.1318,0.1396,0.1427,0.1493,0.1564,0.1617,0.1667,0.1694,0.1809,0.1909,0.1936,0.1974,0.1954,0.1793,0.1706,0.1821,0.1814,0.1805,0.1799,0.1793,0.1789,0.1785,0,0.0999,0.1025,0.1171,0.1225,0.1283,0.1362,0.139,0.1463,0.1479,0.1524,0.1539,0.1566,0.156,0.1579,0.1613,0.1665,0.178,0.1534,0.1557,0.1849,0.1783,0.1784,0.1785,0.1402,0.1396,0.139,0.1386,0,0.0975,0.1067,0.107,0.1189,0.1289,0.1339,0.1398,0.1412,0.1461,0.1465,0.142,0.1414,0.1401,0.1328,0.1349,0.1344,0.1509,0.1415,0.1768,0.151,0.1459,0.1397,0.1413,0.1337,0.1342,0.1345,0.1348,0.135,0.0963,0.0969,0.101,0.1111,0.1208,0.1274,0.1306,0.1314,0.129,0.1285,0.128,0.1214,0.1096,0.1014,0.1047,0.1097,0.1166,0.1147,0.1169,0.1197,0.1127,0.1065,0.0858,0.086,0.0861,0.0863,0.0864,0,0.0864,0.0882,0.0939,0.102,0.1072,0.1235,0.1247,0.1219,0.1163,0.1144,0.1102,0.0841,0.0773,0.0771,0.0834,0.0846,0.0914,0.0778,0.0896,0.0936,0.0973,0.0903,0.057,0.0571,0.0571,0.0572,0,0,0.0819,0.0786,0.0792,0.0845,0.0966,0.1087,0.1126,0.1074,0.1003,0.0845,0.0773,0.0693,0.0665,0.0574,0.0552,0.0649,0.0798,0.0594,0.0796,0.0967,0.1008,0.1107,0.1028,0,0,0,0,0]},{"header":{"parameterUnit":"m.s-1","parameterCategory":2,"la1":30.2991,"la2":30.254,"lo1":-89.0895,"lo2":-89.0444,"dy":0.0017,"dx":0.0017,"nx":28,"ny":28,"refTime":"2023-04-30T15:00:00:Z","depth":"2","parameterNumber":3,"parameterNumberName":"V-component_of_CURRENTS"},"data":[0,0,0,0,0,0,0,0,0,0,0,0,0,0,0,0,0,0,0,0,0,0,0,0,0,0,0,0,0,0,0,0,0,0,0,0,0,0,0,0,0,0,0,0,0,0,0,0,0,0,0,0,0,0,0,0,0,0,-0.0667,-0.0669,0,-0.077,-0.0771,-0.0771,-0.0769,-0.0768,-0.0768,-0.0767,-0.0886,-0.0889,-0.0893,0,0,0,0,0,0,0,0,0,0,0,0,0,-0.0495,-0.0498,-0.0667,-0.0669,-0.0671,-0.077,-0.0771,-0.0772,-0.0769,-0.0768,-0.0768,-0.0767,-0.0884,-0.0889,-0.0893,0,0,0,0,0,0,0,0,0,0,0,0,0,-0.0574,-0.0499,-0.0667,-0.0687,-0.0691,-0.077,-0.0771,-0.0772,-0.0769,-0.0768,-0.0767,-0.0766,-0.0883,-0.0888,-0.0894,-0.095,0,0,-0.0911,-0.0914,0,0,0,0,0,0,0,0,-0.0569,-0.0579,-0.0682,-0.0686,-0.069,-0.0763,-0.0754,-0.0835,-0.077,-0.0731,-0.0767,-0.0766,-0.0852,-0.086,-0.087,-0.0955,-0.096,-0.0912,-0.0915,-0.0918,-0.0919,0,0,0,0,0,0,0,-0.0564,-0.0575,-0.07,-0.0685,-0.069,-0.0702,-0.0711,-0.0769,-0.079,-0.0735,-0.0737,-0.0761,-0.0853,-0.0865,-0.0873,-0.0962,-0.0912,-0.0917,-0.092,-0.0923,-0.1111,-0.1113,0,0,0,0,0,0,-0.0567,-0.057,-0.0697,-0.0704,-0.0635,-0.0706,-0.0716,-0.0734,-0.0789,-0.0799,-0.0762,-0.0761,-0.0856,-0.0867,-0.0878,-0.0921,-0.0918,-0.0923,-0.0926,-0.111,-0.1112,-0.1113,0,0,0,0,0,0,-0.0563,-0.0577,-0.0693,-0.0645,-0.0662,-0.0711,-0.0731,-0.0737,-0.0757,-0.0811,-0.0819,-0.0778,-0.0855,-0.087,-0.092,-0.0927,-0.0926,-0.0931,-0.1108,-0.111,-0.1113,-0.1026,0,0,0,0,0,0,-0.0557,-0.0575,-0.0583,-0.0646,-0.0665,-0.0727,-0.0733,-0.074,-0.0777,-0.0776,-0.0828,-0.0837,-0.0855,-0.0911,-0.0925,-0.0935,-0.0935,-0.1106,-0.1109,-0.1112,-0.1027,-0.1025,-0.1024,0,0,0,0,0,-0.0551,-0.0539,-0.0582,-0.0598,-0.0677,-0.0728,-0.0737,-0.0764,-0.0779,-0.0779,-0.0815,-0.0836,-0.0941,-0.0916,-0.0933,-0.0944,-0.1104,-0.1108,-0.1112,-0.1027,-0.1025,-0.1024,0,0,0,0,0,0,-0.0448,-0.0542,-0.0589,-0.0604,-0.067,-0.073,-0.0726,-0.0775,-0.0805,-0.081,-0.0851,-0.0863,-0.0903,-0.0954,-0.0926,-0.1014,-0.103,-0.1037,-0.0961,-0.0959,-0.0958,-0.0889,-0.094,0,0,0,0,0,-0.0443,-0.0481,-0.0565,-0.059,-0.0605,-0.0679,-0.0705,-0.0749,-0.0793,-0.0805,-0.0835,-0.0888,-0.0935,-0.0967,-0.1006,-0.1065,-0.1087,-0.109,-0.1088,-0.1086,-0.1046,-0.112,-0.1119,-0.1125,-0.1125,-0.1125,0,0,-0.0415,-0.0478,-0.0497,-0.0577,-0.0615,-0.0632,-0.0687,-0.0733,-0.0766,-0.0818,-0.0833,-0.0875,-0.0947,-0.0985,-0.1013,-0.1028,-0.1096,-0.1091,-0.1088,-0.1048,-0.1123,-0.1122,-0.1121,-0.1128,-0.1127,-0.1127,0,0,-0.037,-0.0424,-0.0431,-0.0484,-0.0571,-0.0611,-0.063,-0.0697,-0.0731,-0.0784,-0.0821,-0.0859,-0.0938,-0.097,-0.1008,-0.1036,-0.1075,-0.1075,-0.1019,-0.1092,-0.1091,-0.109,-0.1096,-0.1097,-0.1086,-0.1086,-0.1086,0,-0.0336,-0.0365,-0.0439,-0.0459,-0.0487,-0.0594,-0.0594,-0.0654,-0.0739,-0.0763,-0.0776,-0.0862,-0.0921,-0.097,-0.0968,-0.1025,-0.1054,-0.1011,-0.1084,-0.1084,-0.1085,-0.1092,-0.1093,-0.1082,-0.1083,-0.1083,-0.1083,0,-0.0287,-0.0326,-0.0323,-0.0387,-0.0418,-0.0448,-0.0536,-0.0591,-0.0645,-0.0692,-0.0743,-0.0807,-0.0849,-0.0897,-0.0934,-0.0979,-0.0991,-0.1059,-0.1072,-0.1077,-0.1087,-0.1089,-0.1077,-0.1078,-0.1079,-0.108,0,0,-0.0195,-0.0271,-0.0277,-0.0299,-0.0391,-0.0407,-0.0472,-0.0536,-0.0564,-0.0639,-0.065,-0.0728,-0.0746,-0.0788,-0.0856,-0.0918,-0.0945,-0.0979,-0.0984,-0.0951,-0.1059,-0.0995,-0.0992,-0.1035,-0.1036,-0.1036,-0.1054,0,-0.0143,-0.0151,-0.0199,-0.0208,-0.0218,-0.0326,-0.0361,-0.045,-0.0515,-0.0551,-0.0646,-0.0659,-0.0719,-0.0728,-0.08,-0.0908,-0.0953,-0.093,-0.1086,-0.1088,-0.1005,-0.0994,-0.0906,-0.0909,-0.1057,-0.1057,-0.1058,0,-0.0083,-0.0111,-0.0097,-0.0151,-0.015,-0.0152,-0.0221,-0.0272,-0.038,-0.0424,-0.0468,-0.0532,-0.0597,-0.0664,-0.0811,-0.0797,-0.0898,-0.0986,-0.0992,-0.0954,-0.103,-0.0937,-0.0909,-0.1063,-0.1063,-0.1062,-0.1062,0,-0.0009,-0.0035,-0.0018,-0.0041,-0.011,-0.0112,-0.0124,-0.0218,-0.0258,-0.0319,-0.0331,-0.0423,-0.0478,-0.0607,-0.0776,-0.08,-0.0946,-0.1019,-0.1045,-0.104,-0.1,-0.0991,-0.1116,-0.1116,-0.1116,-0.1116,-0.1116,0,0.0032,0.0043,0.0026,0.0013,0.0048,-0.001,0.001,-0.0045,-0.0104,-0.0119,-0.0223,-0.0273,-0.0477,-0.0602,-0.0737,-0.0871,-0.092,-0.0993,-0.104,-0.0967,-0.0955,-0.1129,-0.113,-0.1117,-0.1116,-0.1116,-0.1116,0,0.0068,0.0056,0.0065,0.0049,0.0065,0.0092,0.0103,0.0099,0.005,0.002,0.0012,-0.0172,-0.0325,-0.0503,-0.0736,-0.0819,-0.0955,-0.1002,-0.0857,-0.0885,-0.1,-0.0997,-0.0999,-0.0997,-0.0995,-0.0993,-0.0992,0,0.0096,0.0091,0.0104,0.0137,0.0142,0.0181,0.0194,0.017,0.0158,0.0067,0.0048,-0.0104,-0.0201,-0.0459,-0.0641,-0.0795,-0.0932,-0.0837,-0.0863,-0.0941,-0.0988,-0.0988,-0.0988,-0.0777,-0.0774,-0.0771,-0.0769,0,0.0126,0.0126,0.0122,0.0179,0.0233,0.0272,0.0304,0.0318,0.0267,0.0245,0.0166,0.0105,-0.0126,-0.0299,-0.0506,-0.0611,-0.0788,-0.079,-0.0946,-0.081,-0.0732,-0.0778,-0.0786,-0.0748,-0.075,-0.0752,-0.0753,-0.0754,0.0152,0.0171,0.0176,0.0237,0.0295,0.0359,0.0416,0.0431,0.0439,0.0454,0.0337,0.026,-0.0042,-0.0272,-0.0431,-0.058,-0.0625,-0.0705,-0.0713,-0.0724,-0.0685,-0.0608,-0.0589,-0.0591,-0.0592,-0.0593,-0.0593,0,0.0177,0.0206,0.0253,0.0316,0.0383,0.0421,0.0473,0.0532,0.0579,0.054,0.0555,0.0284,0.0139,-0.018,-0.0336,-0.0454,-0.0466,-0.0525,-0.0545,-0.0562,-0.0579,-0.0536,-0.0399,-0.04,-0.04,-0.04,0,0,0.0196,0.0232,0.0253,0.0377,0.0449,0.0572,0.0626,0.0718,0.0685,0.0635,0.0547,0.0531,0.0084,-0.0045,-0.0224,-0.0306,-0.0398,-0.0302,-0.0434,-0.045,-0.0465,-0.0648,-0.0596,0,0,0,0,0]}],[{"header":{"parameterUnit":"m.s-1","parameterCategory":2,"la1":30.2991,"la2":30.254,"lo1":-89.0895,"lo2":-89.0444,"dy":0.0017,"dx":0.0017,"nx":28,"ny":28,"refTime":"2023-04-30T15:00:00:Z","depth":"4","parameterNumber":2,"parameterNumberName":"U-component_of_CURRENTS"},"data":[0,0,0,0,0,0,0,0,0,0,0,0,0,0,0,0,0,0,0,0,0,0,0,0,0,0,0,0,0,0,0,0,0,0,0,0,0,0,0,0,0,0,0,0,0,0,0,0,0,0,0,0,0,0,0,0,0,0,-0.0439,-0.0439,0,-0.0477,-0.0477,-0.0478,-0.05,-0.05,-0.05,-0.0499,-0.0573,-0.0575,-0.0578,0,0,0,0,0,0,0,0,0,0,0,0,0,-0.045,-0.045,-0.0439,-0.0439,-0.0439,-0.0476,-0.0477,-0.0479,-0.05,-0.05,-0.0499,-0.0499,-0.0572,-0.0575,-0.0578,0,0,0,0,0,0,0,0,0,0,0,0,0,-0.0467,-0.045,-0.0439,-0.0451,-0.0452,-0.0476,-0.0478,-0.0479,-0.05,-0.05,-0.0499,-0.0499,-0.0571,-0.0575,-0.0578,-0.0612,0,0,-0.0589,-0.059,0,0,0,0,0,0,0,0,-0.0466,-0.0467,-0.0449,-0.045,-0.0451,-0.0479,-0.0508,-0.0523,-0.0501,-0.0488,-0.0499,-0.0498,-0.0542,-0.0548,-0.0563,-0.0615,-0.0618,-0.0589,-0.0591,-0.0593,-0.0594,0,0,0,0,0,0,0,-0.0465,-0.0466,-0.046,-0.0449,-0.045,-0.0475,-0.0477,-0.0512,-0.0522,-0.0489,-0.0489,-0.0485,-0.0543,-0.056,-0.0565,-0.0619,-0.0589,-0.0592,-0.0594,-0.0596,-0.0708,-0.0709,0,0,0,0,0,0,-0.0447,-0.0465,-0.0458,-0.046,-0.0451,-0.0475,-0.0477,-0.0475,-0.0521,-0.0526,-0.0485,-0.0486,-0.0554,-0.0561,-0.0568,-0.0616,-0.0593,-0.0596,-0.0598,-0.0708,-0.0709,-0.071,0,0,0,0,0,0,-0.0447,-0.0446,-0.0457,-0.0459,-0.0461,-0.0474,-0.0472,-0.0476,-0.0495,-0.0517,-0.0524,-0.05,-0.0554,-0.0563,-0.0605,-0.0619,-0.0598,-0.0601,-0.0707,-0.0708,-0.0709,-0.071,0,0,0,0,0,0,-0.0447,-0.0446,-0.0444,-0.0458,-0.046,-0.0473,-0.0472,-0.0477,-0.049,-0.0492,-0.0532,-0.0538,-0.0554,-0.0599,-0.0608,-0.0623,-0.0604,-0.0705,-0.0707,-0.0709,-0.0709,-0.0711,-0.0713,0,0,0,0,0,-0.0447,-0.0446,-0.0443,-0.0443,-0.0455,-0.0472,-0.0477,-0.0488,-0.0491,-0.0504,-0.0532,-0.0537,-0.0616,-0.0603,-0.0613,-0.063,-0.0705,-0.0707,-0.0709,-0.0708,-0.0711,-0.0713,0,0,0,0,0,0,-0.0456,-0.0448,-0.0446,-0.0444,-0.0455,-0.0474,-0.0485,-0.0493,-0.0526,-0.053,-0.0554,-0.0563,-0.0606,-0.062,-0.0605,-0.0667,-0.0659,-0.0663,-0.0655,-0.0658,-0.066,-0.0653,-0.0606,0,0,0,0,0,-0.0453,-0.0448,-0.0451,-0.0452,-0.0457,-0.0473,-0.0483,-0.049,-0.0515,-0.0529,-0.0556,-0.0588,-0.0623,-0.0641,-0.0674,-0.0711,-0.0712,-0.0726,-0.0729,-0.073,-0.0731,-0.0749,-0.0752,-0.0716,-0.0716,-0.0716,0,0,-0.0458,-0.0451,-0.045,-0.0453,-0.0465,-0.0478,-0.048,-0.0496,-0.0511,-0.0533,-0.0572,-0.0601,-0.0636,-0.0676,-0.0696,-0.0689,-0.074,-0.0733,-0.0734,-0.0734,-0.0751,-0.0754,-0.0757,-0.0718,-0.0717,-0.0717,0,0,-0.0463,-0.046,-0.0458,-0.0467,-0.0475,-0.0486,-0.049,-0.0512,-0.0527,-0.0564,-0.0585,-0.0619,-0.0673,-0.0697,-0.0717,-0.0752,-0.0754,-0.0766,-0.0769,-0.0786,-0.0788,-0.0791,-0.0785,-0.0787,-0.0763,-0.0763,-0.0763,0,-0.0471,-0.0462,-0.0464,-0.0469,-0.0475,-0.0489,-0.0498,-0.0521,-0.0555,-0.0568,-0.0575,-0.0653,-0.0681,-0.0727,-0.0741,-0.0756,-0.0761,-0.0754,-0.0787,-0.0789,-0.0792,-0.0786,-0.0788,-0.0763,-0.0763,-0.0763,-0.0763,0,-0.0474,-0.0472,-0.0477,-0.0482,-0.0494,-0.0506,-0.0525,-0.0545,-0.0564,-0.0582,-0.063,-0.0671,-0.0715,-0.073,-0.0751,-0.0787,-0.0782,-0.0789,-0.0776,-0.0795,-0.0788,-0.079,-0.0763,-0.0763,-0.0763,-0.0763,0,0,-0.0484,-0.0478,-0.0482,-0.048,-0.0499,-0.0509,-0.0535,-0.0558,-0.0571,-0.0613,-0.0635,-0.0702,-0.0723,-0.0747,-0.0776,-0.0791,-0.0811,-0.08,-0.0801,-0.0786,-0.0836,-0.0693,-0.0681,-0.0826,-0.0827,-0.0828,-0.0819,0,-0.049,-0.0484,-0.0487,-0.05,-0.05,-0.052,-0.0544,-0.0568,-0.0588,-0.0616,-0.0659,-0.071,-0.0731,-0.0764,-0.0779,-0.081,-0.082,-0.0812,-0.0827,-0.0827,-0.069,-0.068,-0.083,-0.0821,-0.0822,-0.0822,-0.0822,0,-0.0494,-0.0485,-0.0486,-0.0492,-0.0499,-0.0518,-0.0543,-0.0571,-0.0609,-0.0632,-0.0673,-0.0708,-0.076,-0.0772,-0.0816,-0.0813,-0.0828,-0.0839,-0.0839,-0.0706,-0.0687,-0.0802,-0.0826,-0.0826,-0.0825,-0.0825,-0.0825,0,-0.0484,-0.0489,-0.0483,-0.0488,-0.0502,-0.0518,-0.0546,-0.0577,-0.0596,-0.0659,-0.0675,-0.0728,-0.0773,-0.0797,-0.0808,-0.0832,-0.0821,-0.0858,-0.0738,-0.0728,-0.0862,-0.086,-0.0882,-0.0882,-0.0882,-0.0883,-0.0883,0,-0.0481,-0.0481,-0.0482,-0.048,-0.0489,-0.0519,-0.0541,-0.0574,-0.0615,-0.062,-0.0699,-0.0689,-0.0787,-0.078,-0.0794,-0.0739,-0.0811,-0.0726,-0.0712,-0.0861,-0.0859,-0.0862,-0.086,-0.0882,-0.0882,-0.0882,-0.0882,0,-0.047,-0.047,-0.0464,-0.0475,-0.048,-0.0499,-0.0537,-0.0546,-0.0611,-0.0617,-0.0649,-0.0687,-0.0674,-0.0707,-0.0731,-0.0712,-0.0684,-0.0648,-0.077,-0.0766,-0.0594,-0.0592,-0.0542,-0.0537,-0.0532,-0.0529,-0.0526,0,-0.0461,-0.0455,-0.0449,-0.044,-0.0448,-0.0474,-0.048,-0.0542,-0.0542,-0.0571,-0.0555,-0.0572,-0.0578,-0.0498,-0.0536,-0.0531,-0.0531,-0.0536,-0.0602,-0.0565,-0.0558,-0.0563,-0.0567,-0.0518,-0.0517,-0.0516,-0.0515,0,-0.0443,-0.0444,-0.043,-0.0406,-0.0408,-0.0398,-0.0414,-0.0408,-0.0459,-0.0515,-0.0458,-0.0445,-0.0404,-0.0403,-0.0395,-0.039,-0.0546,-0.0491,-0.0503,-0.0565,-0.0536,-0.0534,-0.0544,-0.05,-0.0502,-0.0503,-0.0504,0,-0.0433,-0.0413,-0.0391,-0.0372,-0.0351,-0.0311,-0.0334,-0.0318,-0.0334,-0.0379,-0.0325,-0.033,-0.0362,-0.0321,-0.0285,-0.0282,-0.0312,-0.035,-0.037,-0.0387,-0.0336,-0.0276,-0.0133,0,0,0,0,0,-0.0418,-0.0386,-0.0355,-0.031,-0.0279,-0.0266,-0.0269,-0.0294,-0.0329,-0.0275,-0.0312,-0.0259,-0.0222,-0.0207,-0.0178,-0.0209,-0.031,-0.0173,-0.0365,-0.0414,-0.0432,-0.0384,0,0,0,0,0,0,-0.0404,-0.0378,-0.0344,-0.0257,-0.0208,-0.017,-0.0165,-0.019,-0.0168,-0.021,-0.0188,-0.0229,-0.0194,-0.0231,-0.0166,-0.0166,-0.0278,-0.018,-0.0178,-0.0404,-0.0421,-0.0435,-0.0391,0,0,0,0,0]},{"header":{"parameterUnit":"m.s-1","parameterCategory":2,"la1":30.2991,"la2":30.254,"lo1":-89.0895,"lo2":-89.0444,"dy":0.0017,"dx":0.0017,"nx":28,"ny":28,"refTime":"2023-04-30T15:00:00:Z","depth":"4","parameterNumber":3,"parameterNumberName":"V-component_of_CURRENTS"},"data":[0,0,0,0,0,0,0,0,0,0,0,0,0,0,0,0,0,0,0,0,0,0,0,0,0,0,0,0,0,0,0,0,0,0,0,0,0,0,0,0,0,0,0,0,0,0,0,0,0,0,0,0,0,0,0,0,0,0,-0.0021,-0.0021,0,-0.0012,-0.0012,-0.0012,0.0008,0.0009,0.0009,0.0009,0.0047,0.0048,0.0049,0,0,0,0,0,0,0,0,0,0,0,0,0,0.0033,0.0032,-0.0021,-0.0021,-0.0021,-0.0012,-0.0012,-0.0012,0.0008,0.0009,0.0009,0.0009,0.0047,0.0048,0.0049,0,0,0,0,0,0,0,0,0,0,0,0,0,0.0024,0.0031,-0.0021,-0.0011,-0.001,-0.0012,-0.0012,-0.0012,0.0008,0.0009,0.0009,0.0009,0.0047,0.0048,0.0049,0.0048,0,0,0.0052,0.0053,0,0,0,0,0,0,0,0,0.0024,0.0022,-0.0012,-0.0012,-0.0011,-0.0004,0.0021,0.0009,0.0008,0.0003,0.0009,0.001,0.0031,0.0034,0.0036,0.0049,0.0051,0.0052,0.0053,0.0053,0.0054,0,0,0,0,0,0,0,0.0025,0.0022,-0.0016,-0.0013,-0.0012,0.0011,0.001,0.0019,0.0016,0.0003,0.0004,0.0003,0.0032,0.0035,0.0037,0.0051,0.0052,0.0053,0.0054,0.0054,0.0013,0.0012,0,0,0,0,0,0,0.0017,0.0022,-0.0016,-0.0016,0.0006,0.0009,0.0008,-0.0005,0.0016,0.0019,0.0002,0.0004,0.0033,0.0036,0.0039,0.0007,0.0053,0.0055,0.0055,0.0015,0.0013,0.0011,0,0,0,0,0,0,0.0018,0.0013,-0.0017,0.0003,0.0001,0.0007,-0.0007,-0.0005,-0.0002,0.0014,0.0018,0.0003,0.0033,0.0037,0.0035,0.001,0.0055,0.0056,0.0017,0.0014,0.0012,-0.0036,0,0,0,0,0,0,0.0019,0.0013,0.0003,0.0002,-0.0001,-0.0023,-0.0008,-0.0006,-0.0005,-0.0003,0.0016,0.002,0.0034,0.0033,0.0036,0.0013,0.0057,0.0019,0.0016,0.0013,-0.0032,-0.004,-0.0046,0,0,0,0,0,0.0021,0.0005,0.0002,-0.0003,-0.0017,-0.0023,-0.0022,-0.0014,-0.0005,-0.0009,-0.0002,0.002,0.0013,0.0033,0.0037,0.0013,0.0021,0.0017,0.0013,-0.0029,-0.0038,-0.0046,0,0,0,0,0,0,0.0019,0.0005,0.0002,-0.0019,-0.0024,-0.002,-0.002,-0.0017,-0.0014,-0.001,0.0008,0.0011,-0.0006,0.0008,0.0029,-0.0013,0.0016,0.0013,-0.0017,-0.0026,-0.0033,-0.0042,0.0058,0,0,0,0,0,0.0013,-0.0002,-0.001,-0.0028,-0.0029,-0.0025,-0.0026,-0.0023,-0.0021,-0.0019,-0.001,-0.0009,-0.0021,-0.0017,-0.0022,-0.0032,-0.0031,-0.0051,-0.0058,-0.0064,-0.0072,-0.0105,-0.0115,-0.0002,-0.0002,-0.0002,0,0,0.0004,-0.0003,-0.0014,-0.0029,-0.0028,-0.0042,-0.0024,-0.0028,-0.0047,-0.0015,-0.0033,-0.0031,-0.0031,-0.0053,-0.006,-0.0041,-0.0095,-0.0069,-0.0074,-0.0079,-0.011,-0.0121,-0.0131,-0.0005,-0.0004,-0.0004,0,0,-0.0012,-0.0023,-0.0036,-0.0044,-0.0048,-0.005,-0.0054,-0.0056,-0.0061,-0.0078,-0.0073,-0.0091,-0.0089,-0.0107,-0.0113,-0.0164,-0.0136,-0.016,-0.0195,-0.0227,-0.0236,-0.0244,-0.0247,-0.0255,-0.0158,-0.0158,-0.0158,0,-0.002,-0.0045,-0.0041,-0.0054,-0.0068,-0.0058,-0.008,-0.0087,-0.0093,-0.0108,-0.0092,-0.0129,-0.0125,-0.017,-0.0188,-0.0181,-0.0177,-0.0157,-0.0235,-0.0244,-0.0251,-0.0252,-0.026,-0.0161,-0.0161,-0.016,-0.016,0,-0.0045,-0.0067,-0.0073,-0.0095,-0.0107,-0.0123,-0.0136,-0.0148,-0.0152,-0.0165,-0.0205,-0.0207,-0.0232,-0.0237,-0.0223,-0.0279,-0.0251,-0.0243,-0.0209,-0.0265,-0.0263,-0.027,-0.0165,-0.0164,-0.0163,-0.0163,0,0,-0.0067,-0.0087,-0.0093,-0.0113,-0.0132,-0.0148,-0.018,-0.0213,-0.024,-0.0252,-0.0295,-0.0323,-0.0321,-0.033,-0.0322,-0.0342,-0.0388,-0.0309,-0.0309,-0.0304,-0.0433,-0.038,-0.0383,-0.0384,-0.0386,-0.0387,-0.0405,0,-0.009,-0.012,-0.0132,-0.0178,-0.0198,-0.0211,-0.0247,-0.0275,-0.0293,-0.0329,-0.0348,-0.0384,-0.0358,-0.0371,-0.0392,-0.0392,-0.0412,-0.0382,-0.0386,-0.0386,-0.0327,-0.0392,-0.0393,-0.0411,-0.0412,-0.0414,-0.0414,0,-0.0118,-0.0135,-0.0176,-0.0225,-0.0236,-0.0269,-0.0323,-0.0354,-0.0398,-0.0413,-0.0447,-0.045,-0.0493,-0.0461,-0.0495,-0.047,-0.0461,-0.0453,-0.0454,-0.0395,-0.0349,-0.0347,-0.0428,-0.0427,-0.0426,-0.0425,-0.0424,0,-0.0134,-0.0176,-0.021,-0.0226,-0.0273,-0.0306,-0.0339,-0.0383,-0.0415,-0.0472,-0.0495,-0.0535,-0.0559,-0.0565,-0.0538,-0.0523,-0.0557,-0.054,-0.0485,-0.048,-0.0496,-0.0488,-0.0577,-0.0577,-0.0577,-0.0577,-0.0577,0,-0.0161,-0.0194,-0.0222,-0.0245,-0.0301,-0.0331,-0.0395,-0.0428,-0.0478,-0.0511,-0.0542,-0.0558,-0.0585,-0.0592,-0.0568,-0.0544,-0.0587,-0.0507,-0.0494,-0.0514,-0.0508,-0.0501,-0.0492,-0.0578,-0.0578,-0.0577,-0.0577,0,-0.0182,-0.0194,-0.0238,-0.0287,-0.0311,-0.0353,-0.0425,-0.0464,-0.0509,-0.0552,-0.0573,-0.0599,-0.0596,-0.06,-0.0606,-0.058,-0.0566,-0.0544,-0.0555,-0.0539,-0.0458,-0.0451,-0.0503,-0.0502,-0.0501,-0.05,-0.0499,0,-0.0197,-0.0216,-0.0266,-0.0292,-0.0321,-0.0382,-0.0426,-0.0481,-0.0505,-0.055,-0.056,-0.0583,-0.0585,-0.0558,-0.0559,-0.0539,-0.0521,-0.0528,-0.051,-0.0475,-0.0457,-0.0452,-0.0447,-0.0497,-0.0497,-0.0496,-0.0496,0,-0.0226,-0.0236,-0.0266,-0.0308,-0.0356,-0.0411,-0.0462,-0.0477,-0.052,-0.0558,-0.054,-0.0537,-0.0531,-0.0517,-0.0511,-0.0487,-0.0539,-0.0515,-0.0518,-0.0501,-0.0468,-0.045,-0.0447,-0.0492,-0.0493,-0.0493,-0.0493,0,-0.0245,-0.0264,-0.0287,-0.0325,-0.0375,-0.0415,-0.045,-0.0467,-0.0494,-0.0518,-0.0498,-0.0502,-0.0512,-0.0487,-0.0468,-0.0459,-0.0448,-0.0447,-0.0453,-0.0458,-0.0433,-0.0383,-0.0386,0,0,0,0,0,-0.0263,-0.0274,-0.0305,-0.0343,-0.0385,-0.0414,-0.046,-0.0482,-0.0501,-0.0479,-0.0487,-0.0464,-0.0444,-0.0438,-0.0416,-0.0447,-0.0456,-0.0422,-0.0461,-0.0469,-0.0474,-0.0447,0,0,0,0,0,0,-0.0277,-0.0298,-0.03,-0.0337,-0.0363,-0.0418,-0.0444,-0.0464,-0.0441,-0.0451,-0.0432,-0.0445,-0.0421,-0.0446,-0.0407,-0.0408,-0.0427,-0.0421,-0.042,-0.0466,-0.0471,-0.0474,-0.0449,0,0,0,0,0]}]]